owner,sensor,date,latitude,longitude,relative_humidity,qcFlag 
DISL,ioos:station:DISL:KATA:1,2013-12-01T00:00:00Z,30.2583,-88.2131,81.7,1111122 
DISL,ioos:station:DISL:KATA:1,2013-12-01T00:30:00Z,30.2583,-88.2131,77.95,1111122 
DISL,ioos:station:DISL:KATA:1,2013-12-01T01:00:00Z,30.2583,-88.2131,80.1,1111122 
DISL,ioos:station:DISL:KATA:1,2013-12-01T01:30:00Z,30.2583,-88.2131,78.09,1111122 
DISL,ioos:station:DISL:KATA:1,2013-12-01T02:00:00Z,30.2583,-88.2131,76.53,1111122 
DISL,ioos:station:DISL:KATA:1,2013-12-01T02:30:00Z,30.2583,-88.2131,85.2,1111122 
DISL,ioos:station:DISL:KATA:1,2013-12-01T03:00:00Z,30.2583,-88.2131,82.5,1111122 
DISL,ioos:station:DISL:KATA:1,2013-12-01T03:30:00Z,30.2583,-88.2131,78.43,1111122 
DISL,ioos:station:DISL:KATA:1,2013-12-01T04:00:00Z,30.2583,-88.2131,89.1,1111122 
DISL,ioos:station:DISL:KATA:1,2013-12-01T04:30:00Z,30.2583,-88.2131,89.9,1111122 
DISL,ioos:station:DISL:KATA:1,2013-12-01T05:00:00Z,30.2583,-88.2131,88.1,1111122 
DISL,ioos:station:DISL:KATA:1,2013-12-01T05:30:00Z,30.2583,-88.2131,86.8,1111122 
DISL,ioos:station:DISL:KATA:1,2013-12-01T06:00:00Z,30.2583,-88.2131,86.6,1111122 
DISL,ioos:station:DISL:KATA:1,2013-12-01T06:30:00Z,30.2583,-88.2131,89.0,1111122 
DISL,ioos:station:DISL:KATA:1,2013-12-01T07:00:00Z,30.2583,-88.2131,90.1,1111122 
DISL,ioos:station:DISL:KATA:1,2013-12-01T07:30:00Z,30.2583,-88.2131,89.5,1111122 
DISL,ioos:station:DISL:KATA:1,2013-12-01T08:00:00Z,30.2583,-88.2131,89.2,1111122 
DISL,ioos:station:DISL:KATA:1,2013-12-01T08:30:00Z,30.2583,-88.2131,90.3,1111122 
DISL,ioos:station:DISL:KATA:1,2013-12-01T09:00:00Z,30.2583,-88.2131,91.9,1111122 
DISL,ioos:station:DISL:KATA:1,2013-12-01T09:30:00Z,30.2583,-88.2131,91.0,1111122 
DISL,ioos:station:DISL:KATA:1,2013-12-01T10:00:00Z,30.2583,-88.2131,90.9,1111122 
DISL,ioos:station:DISL:KATA:1,2013-12-01T10:30:00Z,30.2583,-88.2131,89.6,1111122 
DISL,ioos:station:DISL:KATA:1,2013-12-01T11:00:00Z,30.2583,-88.2131,88.5,1111122 
DISL,ioos:station:DISL:KATA:1,2013-12-01T11:30:00Z,30.2583,-88.2131,89.1,1111122 
DISL,ioos:station:DISL:KATA:1,2013-12-01T12:00:00Z,30.2583,-88.2131,88.6,1111122 
DISL,ioos:station:DISL:KATA:1,2013-12-01T12:30:00Z,30.2583,-88.2131,89.1,1111122 
DISL,ioos:station:DISL:KATA:1,2013-12-01T13:00:00Z,30.2583,-88.2131,88.3,1111122 
DISL,ioos:station:DISL:KATA:1,2013-12-01T13:30:00Z,30.2583,-88.2131,87.4,1111122 
DISL,ioos:station:DISL:KATA:1,2013-12-01T14:00:00Z,30.2583,-88.2131,87.7,1111122 
DISL,ioos:station:DISL:KATA:1,2013-12-01T14:30:00Z,30.2583,-88.2131,87.4,1111122 
DISL,ioos:station:DISL:KATA:1,2013-12-01T15:00:00Z,30.2583,-88.2131,86.9,1111122 
DISL,ioos:station:DISL:KATA:1,2013-12-01T15:30:00Z,30.2583,-88.2131,81.3,1111122 
DISL,ioos:station:DISL:KATA:1,2013-12-01T16:00:00Z,30.2583,-88.2131,77.62,1111122 
DISL,ioos:station:DISL:KATA:1,2013-12-01T16:30:00Z,30.2583,-88.2131,80.0,1111122 
DISL,ioos:station:DISL:KATA:1,2013-12-01T17:00:00Z,30.2583,-88.2131,80.4,1111122 
DISL,ioos:station:DISL:KATA:1,2013-12-01T17:30:00Z,30.2583,-88.2131,80.6,1111122 
DISL,ioos:station:DISL:KATA:1,2013-12-01T18:00:00Z,30.2583,-88.2131,86.3,1111122 
DISL,ioos:station:DISL:KATA:1,2013-12-01T18:30:00Z,30.2583,-88.2131,82.7,1111122 
DISL,ioos:station:DISL:KATA:1,2013-12-01T19:00:00Z,30.2583,-88.2131,84.4,1111122 
DISL,ioos:station:DISL:KATA:1,2013-12-01T19:30:00Z,30.2583,-88.2131,74.29,1111122 
DISL,ioos:station:DISL:KATA:1,2013-12-01T20:00:00Z,30.2583,-88.2131,81.7,1111122 
DISL,ioos:station:DISL:KATA:1,2013-12-01T20:30:00Z,30.2583,-88.2131,80.1,1111122 
DISL,ioos:station:DISL:KATA:1,2013-12-01T21:00:00Z,30.2583,-88.2131,80.0,1111122 
DISL,ioos:station:DISL:KATA:1,2013-12-01T21:30:00Z,30.2583,-88.2131,80.8,1111122 
DISL,ioos:station:DISL:KATA:1,2013-12-01T22:00:00Z,30.2583,-88.2131,73.49,1111122 
DISL,ioos:station:DISL:KATA:1,2013-12-01T22:30:00Z,30.2583,-88.2131,69.14,1111122 
DISL,ioos:station:DISL:KATA:1,2013-12-01T23:00:00Z,30.2583,-88.2131,75.44,1111122 
DISL,ioos:station:DISL:KATA:1,2013-12-01T23:30:00Z,30.2583,-88.2131,81.2,1111122 
DISL,ioos:station:DISL:KATA:1,2013-12-02T00:00:00Z,30.2583,-88.2131,79.63,1111122 
DISL,ioos:station:DISL:KATA:1,2013-12-02T00:30:00Z,30.2583,-88.2131,77.89,1111122 
DISL,ioos:station:DISL:KATA:1,2013-12-02T01:00:00Z,30.2583,-88.2131,76.87,1111122 
DISL,ioos:station:DISL:KATA:1,2013-12-02T01:30:00Z,30.2583,-88.2131,77.72,1111122 
DISL,ioos:station:DISL:KATA:1,2013-12-02T02:00:00Z,30.2583,-88.2131,74.01,1111122 
DISL,ioos:station:DISL:KATA:1,2013-12-02T02:30:00Z,30.2583,-88.2131,77.42,1111122 
DISL,ioos:station:DISL:KATA:1,2013-12-02T03:00:00Z,30.2583,-88.2131,75.37,1111122 
DISL,ioos:station:DISL:KATA:1,2013-12-02T03:30:00Z,30.2583,-88.2131,79.02,1111122 
DISL,ioos:station:DISL:KATA:1,2013-12-02T04:00:00Z,30.2583,-88.2131,78.54,1111122 
DISL,ioos:station:DISL:KATA:1,2013-12-02T04:30:00Z,30.2583,-88.2131,75.99,1111122 
DISL,ioos:station:DISL:KATA:1,2013-12-02T05:00:00Z,30.2583,-88.2131,73.37,1111122 
DISL,ioos:station:DISL:KATA:1,2013-12-02T05:30:00Z,30.2583,-88.2131,83.8,1111122 
DISL,ioos:station:DISL:KATA:1,2013-12-02T06:00:00Z,30.2583,-88.2131,83.1,1111122 
DISL,ioos:station:DISL:KATA:1,2013-12-02T06:30:00Z,30.2583,-88.2131,80.8,1111122 
DISL,ioos:station:DISL:KATA:1,2013-12-02T07:00:00Z,30.2583,-88.2131,80.4,1111122 
DISL,ioos:station:DISL:KATA:1,2013-12-02T07:30:00Z,30.2583,-88.2131,80.7,1111122 
DISL,ioos:station:DISL:KATA:1,2013-12-02T08:00:00Z,30.2583,-88.2131,84.5,1111122 
DISL,ioos:station:DISL:KATA:1,2013-12-02T08:30:00Z,30.2583,-88.2131,87.9,1111122 
DISL,ioos:station:DISL:KATA:1,2013-12-02T09:00:00Z,30.2583,-88.2131,89.2,1111122 
DISL,ioos:station:DISL:KATA:1,2013-12-02T09:30:00Z,30.2583,-88.2131,89.1,1111122 
DISL,ioos:station:DISL:KATA:1,2013-12-02T10:00:00Z,30.2583,-88.2131,90.1,1111122 
DISL,ioos:station:DISL:KATA:1,2013-12-02T10:30:00Z,30.2583,-88.2131,90.5,1111122 
DISL,ioos:station:DISL:KATA:1,2013-12-02T11:00:00Z,30.2583,-88.2131,90.7,1111122 
DISL,ioos:station:DISL:KATA:1,2013-12-02T11:30:00Z,30.2583,-88.2131,91.5,1111122 
DISL,ioos:station:DISL:KATA:1,2013-12-02T12:00:00Z,30.2583,-88.2131,91.7,1111122 
DISL,ioos:station:DISL:KATA:1,2013-12-02T12:30:00Z,30.2583,-88.2131,92.0,1111122 
DISL,ioos:station:DISL:KATA:1,2013-12-02T13:00:00Z,30.2583,-88.2131,92.1,1111122 
DISL,ioos:station:DISL:KATA:1,2013-12-02T13:30:00Z,30.2583,-88.2131,88.1,1111122 
DISL,ioos:station:DISL:KATA:1,2013-12-02T14:00:00Z,30.2583,-88.2131,80.5,1111122 
DISL,ioos:station:DISL:KATA:1,2013-12-02T14:30:00Z,30.2583,-88.2131,78.9,1111122 
DISL,ioos:station:DISL:KATA:1,2013-12-02T15:00:00Z,30.2583,-88.2131,83.0,1111122 
DISL,ioos:station:DISL:KATA:1,2013-12-02T15:30:00Z,30.2583,-88.2131,75.93,1111122 
DISL,ioos:station:DISL:KATA:1,2013-12-02T16:00:00Z,30.2583,-88.2131,80.7,1111122 
DISL,ioos:station:DISL:KATA:1,2013-12-02T16:30:00Z,30.2583,-88.2131,75.44,1111122 
DISL,ioos:station:DISL:KATA:1,2013-12-02T17:00:00Z,30.2583,-88.2131,82.3,1111122 
DISL,ioos:station:DISL:KATA:1,2013-12-02T17:30:00Z,30.2583,-88.2131,86.5,1111122 
DISL,ioos:station:DISL:KATA:1,2013-12-02T18:00:00Z,30.2583,-88.2131,84.9,1111122 
DISL,ioos:station:DISL:KATA:1,2013-12-02T18:30:00Z,30.2583,-88.2131,84.2,1111122 
DISL,ioos:station:DISL:KATA:1,2013-12-02T19:00:00Z,30.2583,-88.2131,85.4,1111122 
DISL,ioos:station:DISL:KATA:1,2013-12-02T19:30:00Z,30.2583,-88.2131,83.9,1111122 
DISL,ioos:station:DISL:KATA:1,2013-12-02T20:00:00Z,30.2583,-88.2131,84.3,1111122 
DISL,ioos:station:DISL:KATA:1,2013-12-02T20:30:00Z,30.2583,-88.2131,85.8,1111122 
DISL,ioos:station:DISL:KATA:1,2013-12-02T21:00:00Z,30.2583,-88.2131,86.9,1111122 
DISL,ioos:station:DISL:KATA:1,2013-12-02T21:30:00Z,30.2583,-88.2131,88.5,1111122 
DISL,ioos:station:DISL:KATA:1,2013-12-02T22:00:00Z,30.2583,-88.2131,90.4,1111122 
DISL,ioos:station:DISL:KATA:1,2013-12-02T22:30:00Z,30.2583,-88.2131,88.8,1111122 
DISL,ioos:station:DISL:KATA:1,2013-12-02T23:00:00Z,30.2583,-88.2131,86.2,1111122 
DISL,ioos:station:DISL:KATA:1,2013-12-02T23:30:00Z,30.2583,-88.2131,85.0,1111122 
DISL,ioos:station:DISL:KATA:1,2013-12-03T00:00:00Z,30.2583,-88.2131,86.7,1111122 
DISL,ioos:station:DISL:KATA:1,2013-12-03T00:30:00Z,30.2583,-88.2131,89.8,1111122 
DISL,ioos:station:DISL:KATA:1,2013-12-03T01:00:00Z,30.2583,-88.2131,91.0,1111122 
DISL,ioos:station:DISL:KATA:1,2013-12-03T01:30:00Z,30.2583,-88.2131,90.5,1111122 
DISL,ioos:station:DISL:KATA:1,2013-12-03T02:00:00Z,30.2583,-88.2131,90.3,1111122 
DISL,ioos:station:DISL:KATA:1,2013-12-03T02:30:00Z,30.2583,-88.2131,90.4,1111122 
DISL,ioos:station:DISL:KATA:1,2013-12-03T03:00:00Z,30.2583,-88.2131,91.0,1111122 
DISL,ioos:station:DISL:KATA:1,2013-12-03T03:30:00Z,30.2583,-88.2131,92.1,1111122 
DISL,ioos:station:DISL:KATA:1,2013-12-03T04:00:00Z,30.2583,-88.2131,92.9,1111122 
DISL,ioos:station:DISL:KATA:1,2013-12-03T04:30:00Z,30.2583,-88.2131,93.3,1111122 
DISL,ioos:station:DISL:KATA:1,2013-12-03T05:00:00Z,30.2583,-88.2131,93.2,1111122 
DISL,ioos:station:DISL:KATA:1,2013-12-03T05:30:00Z,30.2583,-88.2131,92.9,1111122 
DISL,ioos:station:DISL:KATA:1,2013-12-03T06:00:00Z,30.2583,-88.2131,93.1,1111122 
DISL,ioos:station:DISL:KATA:1,2013-12-03T06:30:00Z,30.2583,-88.2131,93.4,1111122 
DISL,ioos:station:DISL:KATA:1,2013-12-03T07:00:00Z,30.2583,-88.2131,93.7,1111122 
DISL,ioos:station:DISL:KATA:1,2013-12-03T07:30:00Z,30.2583,-88.2131,93.9,1111122 
DISL,ioos:station:DISL:KATA:1,2013-12-03T08:00:00Z,30.2583,-88.2131,94.0,1111122 
DISL,ioos:station:DISL:KATA:1,2013-12-03T08:30:00Z,30.2583,-88.2131,93.8,1111122 
DISL,ioos:station:DISL:KATA:1,2013-12-03T09:00:00Z,30.2583,-88.2131,94.1,1111122 
DISL,ioos:station:DISL:KATA:1,2013-12-03T09:30:00Z,30.2583,-88.2131,93.7,1111122 
DISL,ioos:station:DISL:KATA:1,2013-12-03T10:00:00Z,30.2583,-88.2131,94.0,1111122 
DISL,ioos:station:DISL:KATA:1,2013-12-03T10:30:00Z,30.2583,-88.2131,93.9,1111122 
DISL,ioos:station:DISL:KATA:1,2013-12-03T11:00:00Z,30.2583,-88.2131,92.7,1111122 
DISL,ioos:station:DISL:KATA:1,2013-12-03T11:30:00Z,30.2583,-88.2131,92.2,1111122 
DISL,ioos:station:DISL:KATA:1,2013-12-03T12:00:00Z,30.2583,-88.2131,92.0,1111122 
DISL,ioos:station:DISL:KATA:1,2013-12-03T12:30:00Z,30.2583,-88.2131,92.0,1111122 
DISL,ioos:station:DISL:KATA:1,2013-12-03T13:00:00Z,30.2583,-88.2131,91.9,1111122 
DISL,ioos:station:DISL:KATA:1,2013-12-03T13:30:00Z,30.2583,-88.2131,90.2,1111122 
DISL,ioos:station:DISL:KATA:1,2013-12-03T14:00:00Z,30.2583,-88.2131,89.3,1111122 
DISL,ioos:station:DISL:KATA:1,2013-12-03T14:30:00Z,30.2583,-88.2131,88.1,1111122 
DISL,ioos:station:DISL:KATA:1,2013-12-03T15:00:00Z,30.2583,-88.2131,87.8,1111122 
DISL,ioos:station:DISL:KATA:1,2013-12-03T15:30:00Z,30.2583,-88.2131,90.5,1111122 
DISL,ioos:station:DISL:KATA:1,2013-12-03T16:00:00Z,30.2583,-88.2131,89.1,1111122 
DISL,ioos:station:DISL:KATA:1,2013-12-03T16:30:00Z,30.2583,-88.2131,89.0,1111122 
DISL,ioos:station:DISL:KATA:1,2013-12-03T17:00:00Z,30.2583,-88.2131,88.8,1111122 
DISL,ioos:station:DISL:KATA:1,2013-12-03T17:30:00Z,30.2583,-88.2131,89.8,1111122 
DISL,ioos:station:DISL:KATA:1,2013-12-03T18:00:00Z,30.2583,-88.2131,90.7,1111122 
DISL,ioos:station:DISL:KATA:1,2013-12-03T18:30:00Z,30.2583,-88.2131,91.6,1111122 
DISL,ioos:station:DISL:KATA:1,2013-12-03T19:00:00Z,30.2583,-88.2131,92.1,1111122 
DISL,ioos:station:DISL:KATA:1,2013-12-03T19:30:00Z,30.2583,-88.2131,91.2,1111122 
DISL,ioos:station:DISL:KATA:1,2013-12-03T20:00:00Z,30.2583,-88.2131,91.1,1111122 
DISL,ioos:station:DISL:KATA:1,2013-12-03T20:30:00Z,30.2583,-88.2131,91.0,1111122 
DISL,ioos:station:DISL:KATA:1,2013-12-03T21:00:00Z,30.2583,-88.2131,91.6,1111122 
DISL,ioos:station:DISL:KATA:1,2013-12-03T21:30:00Z,30.2583,-88.2131,92.0,1111122 
DISL,ioos:station:DISL:KATA:1,2013-12-03T22:00:00Z,30.2583,-88.2131,92.2,1111122 
DISL,ioos:station:DISL:KATA:1,2013-12-03T22:30:00Z,30.2583,-88.2131,92.1,1111122 
DISL,ioos:station:DISL:KATA:1,2013-12-03T23:00:00Z,30.2583,-88.2131,92.3,1111122 
DISL,ioos:station:DISL:KATA:1,2013-12-03T23:30:00Z,30.2583,-88.2131,93.0,1111122 
DISL,ioos:station:DISL:KATA:1,2013-12-04T00:00:00Z,30.2583,-88.2131,93.1,1111122 
DISL,ioos:station:DISL:KATA:1,2013-12-04T00:30:00Z,30.2583,-88.2131,93.6,1111122 
DISL,ioos:station:DISL:KATA:1,2013-12-04T01:00:00Z,30.2583,-88.2131,93.9,1111122 
DISL,ioos:station:DISL:KATA:1,2013-12-04T01:30:00Z,30.2583,-88.2131,94.3,1111122 
DISL,ioos:station:DISL:KATA:1,2013-12-04T02:00:00Z,30.2583,-88.2131,94.8,1111122 
DISL,ioos:station:DISL:KATA:1,2013-12-04T02:30:00Z,30.2583,-88.2131,94.7,1111122 
DISL,ioos:station:DISL:KATA:1,2013-12-04T03:00:00Z,30.2583,-88.2131,94.7,1111122 
DISL,ioos:station:DISL:KATA:1,2013-12-04T03:30:00Z,30.2583,-88.2131,94.9,1111122 
DISL,ioos:station:DISL:KATA:1,2013-12-04T04:00:00Z,30.2583,-88.2131,94.7,1111122 
DISL,ioos:station:DISL:KATA:1,2013-12-04T04:30:00Z,30.2583,-88.2131,94.1,1111122 
DISL,ioos:station:DISL:KATA:1,2013-12-04T05:00:00Z,30.2583,-88.2131,94.0,1111122 
DISL,ioos:station:DISL:KATA:1,2013-12-04T05:30:00Z,30.2583,-88.2131,94.6,1111122 
DISL,ioos:station:DISL:KATA:1,2013-12-04T06:00:00Z,30.2583,-88.2131,95.0,1111122 
DISL,ioos:station:DISL:KATA:1,2013-12-04T06:30:00Z,30.2583,-88.2131,95.5,1111122 
DISL,ioos:station:DISL:KATA:1,2013-12-04T07:00:00Z,30.2583,-88.2131,96.0,1111122 
DISL,ioos:station:DISL:KATA:1,2013-12-04T07:30:00Z,30.2583,-88.2131,96.6,1111122 
DISL,ioos:station:DISL:KATA:1,2013-12-04T08:00:00Z,30.2583,-88.2131,96.8,1111122 
DISL,ioos:station:DISL:KATA:1,2013-12-04T08:30:00Z,30.2583,-88.2131,96.8,1111122 
DISL,ioos:station:DISL:KATA:1,2013-12-04T09:00:00Z,30.2583,-88.2131,97.4,1111122 
DISL,ioos:station:DISL:KATA:1,2013-12-04T09:30:00Z,30.2583,-88.2131,97.9,1111122 
DISL,ioos:station:DISL:KATA:1,2013-12-04T10:00:00Z,30.2583,-88.2131,98.2,1111122 
DISL,ioos:station:DISL:KATA:1,2013-12-04T10:30:00Z,30.2583,-88.2131,98.6,1111122 
DISL,ioos:station:DISL:KATA:1,2013-12-04T11:00:00Z,30.2583,-88.2131,98.9,1111122 
DISL,ioos:station:DISL:KATA:1,2013-12-04T11:30:00Z,30.2583,-88.2131,98.9,1111122 
DISL,ioos:station:DISL:KATA:1,2013-12-04T12:00:00Z,30.2583,-88.2131,99.0,1111122 
DISL,ioos:station:DISL:KATA:1,2013-12-04T12:30:00Z,30.2583,-88.2131,99.2,1111122 
DISL,ioos:station:DISL:KATA:1,2013-12-04T13:00:00Z,30.2583,-88.2131,99.1,1111122 
DISL,ioos:station:DISL:KATA:1,2013-12-04T13:30:00Z,30.2583,-88.2131,99.1,1111122 
DISL,ioos:station:DISL:KATA:1,2013-12-04T14:00:00Z,30.2583,-88.2131,99.1,1111122 
DISL,ioos:station:DISL:KATA:1,2013-12-04T14:30:00Z,30.2583,-88.2131,99.2,1111122 
DISL,ioos:station:DISL:KATA:1,2013-12-04T15:00:00Z,30.2583,-88.2131,99.2,1111122 
DISL,ioos:station:DISL:KATA:1,2013-12-04T15:30:00Z,30.2583,-88.2131,99.1,1111122 
DISL,ioos:station:DISL:KATA:1,2013-12-04T16:00:00Z,30.2583,-88.2131,99.0,1111122 
DISL,ioos:station:DISL:KATA:1,2013-12-04T16:30:00Z,30.2583,-88.2131,98.9,1111122 
DISL,ioos:station:DISL:KATA:1,2013-12-04T17:00:00Z,30.2583,-88.2131,98.7,1111122 
DISL,ioos:station:DISL:KATA:1,2013-12-04T17:30:00Z,30.2583,-88.2131,97.7,1111122 
DISL,ioos:station:DISL:KATA:1,2013-12-04T18:00:00Z,30.2583,-88.2131,96.9,1111122 
DISL,ioos:station:DISL:KATA:1,2013-12-04T18:30:00Z,30.2583,-88.2131,97.3,1111122 
DISL,ioos:station:DISL:KATA:1,2013-12-04T19:00:00Z,30.2583,-88.2131,97.2,1111122 
DISL,ioos:station:DISL:KATA:1,2013-12-04T19:30:00Z,30.2583,-88.2131,97.3,1111122 
DISL,ioos:station:DISL:KATA:1,2013-12-04T20:00:00Z,30.2583,-88.2131,97.6,1111122 
DISL,ioos:station:DISL:KATA:1,2013-12-04T20:30:00Z,30.2583,-88.2131,97.6,1111122 
DISL,ioos:station:DISL:KATA:1,2013-12-04T21:00:00Z,30.2583,-88.2131,97.2,1111122 
DISL,ioos:station:DISL:KATA:1,2013-12-04T21:30:00Z,30.2583,-88.2131,98.3,1111122 
DISL,ioos:station:DISL:KATA:1,2013-12-04T22:00:00Z,30.2583,-88.2131,98.7,1111122 
DISL,ioos:station:DISL:KATA:1,2013-12-04T22:30:00Z,30.2583,-88.2131,98.7,1111122 
DISL,ioos:station:DISL:KATA:1,2013-12-04T23:00:00Z,30.2583,-88.2131,98.9,1111122 
DISL,ioos:station:DISL:KATA:1,2013-12-04T23:30:00Z,30.2583,-88.2131,98.9,1111122 
DISL,ioos:station:DISL:KATA:1,2013-12-05T00:00:00Z,30.2583,-88.2131,99.1,1111122 
DISL,ioos:station:DISL:KATA:1,2013-12-05T00:30:00Z,30.2583,-88.2131,99.1,1111122 
DISL,ioos:station:DISL:KATA:1,2013-12-05T01:00:00Z,30.2583,-88.2131,98.8,1111122 
DISL,ioos:station:DISL:KATA:1,2013-12-05T01:30:00Z,30.2583,-88.2131,99.1,1111122 
DISL,ioos:station:DISL:KATA:1,2013-12-05T02:00:00Z,30.2583,-88.2131,98.9,1111122 
DISL,ioos:station:DISL:KATA:1,2013-12-05T02:30:00Z,30.2583,-88.2131,98.9,1111122 
DISL,ioos:station:DISL:KATA:1,2013-12-05T03:00:00Z,30.2583,-88.2131,98.5,1111122 
DISL,ioos:station:DISL:KATA:1,2013-12-05T03:30:00Z,30.2583,-88.2131,98.7,1111122 
DISL,ioos:station:DISL:KATA:1,2013-12-05T04:00:00Z,30.2583,-88.2131,98.7,1111122 
DISL,ioos:station:DISL:KATA:1,2013-12-05T04:30:00Z,30.2583,-88.2131,98.8,1111122 
DISL,ioos:station:DISL:KATA:1,2013-12-05T05:00:00Z,30.2583,-88.2131,98.9,1111122 
DISL,ioos:station:DISL:KATA:1,2013-12-05T05:30:00Z,30.2583,-88.2131,99.0,1111122 
DISL,ioos:station:DISL:KATA:1,2013-12-05T06:00:00Z,30.2583,-88.2131,99.0,1111122 
DISL,ioos:station:DISL:KATA:1,2013-12-05T06:30:00Z,30.2583,-88.2131,99.0,1111122 
DISL,ioos:station:DISL:KATA:1,2013-12-05T07:00:00Z,30.2583,-88.2131,99.2,1111122 
DISL,ioos:station:DISL:KATA:1,2013-12-05T07:30:00Z,30.2583,-88.2131,99.2,1111122 
DISL,ioos:station:DISL:KATA:1,2013-12-05T08:00:00Z,30.2583,-88.2131,99.2,1111122 
DISL,ioos:station:DISL:KATA:1,2013-12-05T08:30:00Z,30.2583,-88.2131,99.3,1111122 
DISL,ioos:station:DISL:KATA:1,2013-12-05T09:00:00Z,30.2583,-88.2131,99.3,1111122 
DISL,ioos:station:DISL:KATA:1,2013-12-05T09:30:00Z,30.2583,-88.2131,99.3,1111122 
DISL,ioos:station:DISL:KATA:1,2013-12-05T10:00:00Z,30.2583,-88.2131,99.3,1111122 
DISL,ioos:station:DISL:KATA:1,2013-12-05T10:30:00Z,30.2583,-88.2131,99.5,1111122 
DISL,ioos:station:DISL:KATA:1,2013-12-05T11:00:00Z,30.2583,-88.2131,99.5,1111122 
DISL,ioos:station:DISL:KATA:1,2013-12-05T11:30:00Z,30.2583,-88.2131,99.5,1111122 
DISL,ioos:station:DISL:KATA:1,2013-12-05T12:00:00Z,30.2583,-88.2131,99.6,1111122 
DISL,ioos:station:DISL:KATA:1,2013-12-05T12:30:00Z,30.2583,-88.2131,99.6,1111122 
DISL,ioos:station:DISL:KATA:1,2013-12-05T13:00:00Z,30.2583,-88.2131,99.5,1111122 
DISL,ioos:station:DISL:KATA:1,2013-12-05T13:30:00Z,30.2583,-88.2131,99.5,1111122 
DISL,ioos:station:DISL:KATA:1,2013-12-05T14:00:00Z,30.2583,-88.2131,99.5,1111122 
DISL,ioos:station:DISL:KATA:1,2013-12-05T14:30:00Z,30.2583,-88.2131,99.5,1111122 
DISL,ioos:station:DISL:KATA:1,2013-12-05T15:00:00Z,30.2583,-88.2131,99.5,1111122 
DISL,ioos:station:DISL:KATA:1,2013-12-05T15:30:00Z,30.2583,-88.2131,99.6,1111122 
DISL,ioos:station:DISL:KATA:1,2013-12-05T16:00:00Z,30.2583,-88.2131,99.4,1111122 
DISL,ioos:station:DISL:KATA:1,2013-12-05T16:30:00Z,30.2583,-88.2131,99.4,1111122 
DISL,ioos:station:DISL:KATA:1,2013-12-05T17:00:00Z,30.2583,-88.2131,99.3,1111122 
DISL,ioos:station:DISL:KATA:1,2013-12-05T17:30:00Z,30.2583,-88.2131,99.3,1111122 
DISL,ioos:station:DISL:KATA:1,2013-12-05T18:00:00Z,30.2583,-88.2131,99.2,1111122 
DISL,ioos:station:DISL:KATA:1,2013-12-05T18:30:00Z,30.2583,-88.2131,99.2,1111122 
DISL,ioos:station:DISL:KATA:1,2013-12-05T19:00:00Z,30.2583,-88.2131,99.1,1111122 
DISL,ioos:station:DISL:KATA:1,2013-12-05T19:30:00Z,30.2583,-88.2131,99.2,1111122 
DISL,ioos:station:DISL:KATA:1,2013-12-05T20:00:00Z,30.2583,-88.2131,99.3,1111122 
DISL,ioos:station:DISL:KATA:1,2013-12-05T20:30:00Z,30.2583,-88.2131,99.2,1111122 
DISL,ioos:station:DISL:KATA:1,2013-12-05T21:00:00Z,30.2583,-88.2131,99.3,1111122 
DISL,ioos:station:DISL:KATA:1,2013-12-05T21:30:00Z,30.2583,-88.2131,99.3,1111122 
DISL,ioos:station:DISL:KATA:1,2013-12-05T22:00:00Z,30.2583,-88.2131,99.3,1111122 
DISL,ioos:station:DISL:KATA:1,2013-12-05T22:30:00Z,30.2583,-88.2131,99.4,1111122 
DISL,ioos:station:DISL:KATA:1,2013-12-05T23:00:00Z,30.2583,-88.2131,99.4,1111122 
DISL,ioos:station:DISL:KATA:1,2013-12-05T23:30:00Z,30.2583,-88.2131,99.4,1111122 
DISL,ioos:station:DISL:KATA:1,2013-12-06T00:00:00Z,30.2583,-88.2131,99.4,1111122 
DISL,ioos:station:DISL:KATA:1,2013-12-06T00:30:00Z,30.2583,-88.2131,99.4,1111122 
DISL,ioos:station:DISL:KATA:1,2013-12-06T01:00:00Z,30.2583,-88.2131,99.6,1111122 
DISL,ioos:station:DISL:KATA:1,2013-12-06T01:30:00Z,30.2583,-88.2131,99.5,1111122 
DISL,ioos:station:DISL:KATA:1,2013-12-06T02:00:00Z,30.2583,-88.2131,99.5,1111122 
DISL,ioos:station:DISL:KATA:1,2013-12-06T02:30:00Z,30.2583,-88.2131,99.5,1111122 
DISL,ioos:station:DISL:KATA:1,2013-12-06T03:00:00Z,30.2583,-88.2131,99.5,1111122 
DISL,ioos:station:DISL:KATA:1,2013-12-06T03:30:00Z,30.2583,-88.2131,99.5,1111122 
DISL,ioos:station:DISL:KATA:1,2013-12-06T04:00:00Z,30.2583,-88.2131,99.5,1111122 
DISL,ioos:station:DISL:KATA:1,2013-12-06T04:30:00Z,30.2583,-88.2131,99.6,1111122 
DISL,ioos:station:DISL:KATA:1,2013-12-06T05:00:00Z,30.2583,-88.2131,99.5,1111122 
DISL,ioos:station:DISL:KATA:1,2013-12-06T05:30:00Z,30.2583,-88.2131,99.6,1111122 
DISL,ioos:station:DISL:KATA:1,2013-12-06T06:00:00Z,30.2583,-88.2131,99.6,1111122 
DISL,ioos:station:DISL:KATA:1,2013-12-06T06:30:00Z,30.2583,-88.2131,99.7,1111122 
DISL,ioos:station:DISL:KATA:1,2013-12-06T07:00:00Z,30.2583,-88.2131,99.6,1111122 
DISL,ioos:station:DISL:KATA:1,2013-12-06T07:30:00Z,30.2583,-88.2131,99.7,1111122 
DISL,ioos:station:DISL:KATA:1,2013-12-06T08:00:00Z,30.2583,-88.2131,99.7,1111122 
DISL,ioos:station:DISL:KATA:1,2013-12-06T08:30:00Z,30.2583,-88.2131,99.7,1111122 
DISL,ioos:station:DISL:KATA:1,2013-12-06T09:00:00Z,30.2583,-88.2131,99.6,1111122 
DISL,ioos:station:DISL:KATA:1,2013-12-06T09:30:00Z,30.2583,-88.2131,99.7,1111122 
DISL,ioos:station:DISL:KATA:1,2013-12-06T10:00:00Z,30.2583,-88.2131,99.7,1111122 
DISL,ioos:station:DISL:KATA:1,2013-12-06T10:30:00Z,30.2583,-88.2131,99.6,1111122 
DISL,ioos:station:DISL:KATA:1,2013-12-06T11:00:00Z,30.2583,-88.2131,99.8,1111122 
DISL,ioos:station:DISL:KATA:1,2013-12-06T11:30:00Z,30.2583,-88.2131,99.8,1111122 
DISL,ioos:station:DISL:KATA:1,2013-12-06T12:00:00Z,30.2583,-88.2131,99.7,1111122 
DISL,ioos:station:DISL:KATA:1,2013-12-06T12:30:00Z,30.2583,-88.2131,99.7,1111122 
DISL,ioos:station:DISL:KATA:1,2013-12-06T13:00:00Z,30.2583,-88.2131,99.7,1111122 
DISL,ioos:station:DISL:KATA:1,2013-12-06T13:30:00Z,30.2583,-88.2131,99.7,1111122 
DISL,ioos:station:DISL:KATA:1,2013-12-06T14:00:00Z,30.2583,-88.2131,99.7,1111122 
DISL,ioos:station:DISL:KATA:1,2013-12-06T14:30:00Z,30.2583,-88.2131,99.7,1111122 
DISL,ioos:station:DISL:KATA:1,2013-12-06T15:00:00Z,30.2583,-88.2131,99.7,1111122 
DISL,ioos:station:DISL:KATA:1,2013-12-06T15:30:00Z,30.2583,-88.2131,99.6,1111122 
DISL,ioos:station:DISL:KATA:1,2013-12-06T16:00:00Z,30.2583,-88.2131,99.6,1111122 
DISL,ioos:station:DISL:KATA:1,2013-12-06T16:30:00Z,30.2583,-88.2131,99.5,1111122 
DISL,ioos:station:DISL:KATA:1,2013-12-06T17:00:00Z,30.2583,-88.2131,99.5,1111122 
DISL,ioos:station:DISL:KATA:1,2013-12-06T17:30:00Z,30.2583,-88.2131,99.5,1111122 
DISL,ioos:station:DISL:KATA:1,2013-12-06T18:00:00Z,30.2583,-88.2131,99.4,1111122 
DISL,ioos:station:DISL:KATA:1,2013-12-06T18:30:00Z,30.2583,-88.2131,99.3,1111122 
DISL,ioos:station:DISL:KATA:1,2013-12-06T19:00:00Z,30.2583,-88.2131,99.2,1111122 
DISL,ioos:station:DISL:KATA:1,2013-12-06T19:30:00Z,30.2583,-88.2131,99.3,1111122 
DISL,ioos:station:DISL:KATA:1,2013-12-06T20:00:00Z,30.2583,-88.2131,99.2,1111122 
DISL,ioos:station:DISL:KATA:1,2013-12-06T20:30:00Z,30.2583,-88.2131,99.2,1111122 
DISL,ioos:station:DISL:KATA:1,2013-12-06T21:00:00Z,30.2583,-88.2131,99.2,1111122 
DISL,ioos:station:DISL:KATA:1,2013-12-06T21:30:00Z,30.2583,-88.2131,99.2,1111122 
DISL,ioos:station:DISL:KATA:1,2013-12-06T22:00:00Z,30.2583,-88.2131,99.2,1111122 
DISL,ioos:station:DISL:KATA:1,2013-12-06T22:30:00Z,30.2583,-88.2131,99.2,1111122 
DISL,ioos:station:DISL:KATA:1,2013-12-06T23:00:00Z,30.2583,-88.2131,99.2,1111122 
DISL,ioos:station:DISL:KATA:1,2013-12-06T23:30:00Z,30.2583,-88.2131,99.2,1111122 
DISL,ioos:station:DISL:KATA:1,2013-12-07T00:00:00Z,30.2583,-88.2131,99.3,1111122 
DISL,ioos:station:DISL:KATA:1,2013-12-07T00:30:00Z,30.2583,-88.2131,99.2,1111122 
DISL,ioos:station:DISL:KATA:1,2013-12-07T01:00:00Z,30.2583,-88.2131,99.2,1111122 